Location: Praha
(50.0830°N, 14.4670°E)
Time: 08:53:40
(UTC+02:00)

ISS - Pass Details

Date: 25 May 2023
Orbit: 411 x 418 km, 51.6° (Epoch: 07 June)

Event Time Altitude Azimuth Distance (km) Brightness Sun altitude
Rises 23:33:07 0° 282° (WNW) 2,363 0.5 -16.4°
Reaches altitude 10° 23:35:49 10° 259° (W) 1,498 -0.8 -16.5°
Enters shadow 23:37:29 15° 229° (SW) 1,223 -1.6 -16.6°
